Location: Ridgway Nature & Science Center
(38.1460°N, 107.7553°W)
Time: 10:38:55
(UTC-06:00)

Hubble Space Telescope - Pass Details

Date: 12 August 2022
Orbit: 531 x 535 km, 28.5° (Epoch: 27 September)

Event Time Altitude Azimuth Distance (km) Brightness Sun altitude
Rises 20:38:00 0° 250° (WSW) 2,662 5.1 -6.3°
Reaches altitude 10° 20:40:42 10° 233° (SW) 1,772 3.8 -6.8°
Maximum altitude 20:43:42 20° 186° (S) 1,269 2.5 -7.3°
Drops below altitude 10° 20:46:43 10° 138° (SE) 1,771 2.8 -7.9°
Enters shadow 20:47:04 - 135° (SE) 1,875 2.9 -7.9°
